Regional Weather Roundup
Issued by NWS Kansas City/Pleasant Hill, MO

Home | Current Version | Previous Version | Graphics & Text | Print | Product List | Glossary Off
Versions: 1 2 3 4 5 6 7 8 9 10 11 12 13 14 15 16 17 18 19 20 21 22 23 24 25 26 27 28 29 30 31 32 33 34 35 36 37 38 39 40 41 42 43 44 45 46 47 48 49 50

000
ASUS43 KEAX 302204
RWREAX

WEATHER ROUNDUP FOR EASTERN KANSAS AND NORTHWEST MISSOURI
NATIONAL WEATHER SERVICE KANSAS CITY/PLEASANT HILL MO
500 PM CDT WED JUL 30 2014

KSZ040-057-103>105-MOZ028-029-037-043-302300-
...KANSAS CITY METROPOLITAN AREA...

CITY           SKY/WX    TMP DP  RH WIND       PRES   REMARKS
K.C. INTL      CLOUDY    80  57  45 N9        30.08F
K.C. DOWNTOWN  CLOUDY    80  55  42 E8        30.06F
LEES SUMMIT    CLOUDY    77  56  48 E5        30.08F
OLATHE - IXD   CLOUDY    76  58  53 SW6       30.09F
OLATHE - OJC   CLOUDY    75  59  57 SE7       30.08F
LAWRENCE       CLOUDY    81  58  45 N6        30.08F

$$

MOZ001>008-011>017-020>025-030>033-038>040-044>046-053-054-302300-
...NORTHERN AND CENTRAL MISSOURI...

CITY           SKY/WX    TMP DP  RH WIND       PRES   REMARKS
ST. JOSEPH     PTSUNNY   80  56  43 NE7       30.09S
MOSBY          MOCLDY    79  54  41 N7        30.07F
WHITEMAN AFB   PTSUNNY   78  50  37 SW7       30.07F
CLINTON        CLOUDY    75  61  60 CALM      30.09S
SEDALIA        CLOUDY    78  59  51 S6        30.08S
WARSAW         NOT AVBL
MARSHALL       PTSUNNY   81  59  47 CALM      30.08S
CHILLICOTHE      N/A     83  54  36 VRB3      30.08S
KIRKSVILLE     MOSUNNY   82  54  37 VRB5      30.08F

$$

MOZ041-047>049-056>058-063>065-088>090-097-302300-
...EASTERN AND SOUTHERN MISSOURI...

CITY           SKY/WX    TMP DP  RH WIND       PRES   REMARKS
ST. LOUIS INTL PTSUNNY   84  55  36 VRB6      30.05F
SPIRIT OF STL  PTSUNNY   83  53  35 N6        30.04S
COLUMBIA       PTSUNNY   80  57  45 NW3       30.07S
JEFFERSON CITY PTSUNNY   80  55  42 CALM      30.05S
HANNIBAL       MOSUNNY   81  52  36 N5        30.07F
ROLLA          CLOUDY    76  55  48 SW5       30.07F
LEBANON        CLOUDY    73  57  56 E3        30.10F
OSAGE BEACH    CLOUDY    75  57  53 CALM      30.08F
SPRINGFIELD    LGT RAIN  71  65  81 SW3       30.10S
BRANSON        LGT RAIN  66  66 100 CALM      30.11F FOG
JOPLIN         LGT RAIN  67  66  97 VRB6      30.09S
WEST PLAINS    CLOUDY    70  66  87 SW7       30.11S
MALDEN         CLOUDY    79  61  53 S5        30.08F

$$

IAZ060-094-KSZ022-034>040-054-083-096-NEZ052-066-093-302300-
...KANSAS...SOUTHEAST NEBRASKA AND IOWA...

CITY           SKY/WX    TMP DP  RH WIND       PRES   REMARKS
TOPEKA         CLOUDY    81  55  40 NE8       30.09S
MANHATTAN      PTSUNNY   78  56  46 E5        30.09F
EMPORIA        CLOUDY    70  64  81 N6        30.10F
CHANUTE        LGT RAIN  69  66  90 E5        30.09F
WICHITA        LGT RAIN  68  65  90 E10       30.09S FOG
OMAHA          MOSUNNY   82  52  35 N9        30.10F
LINCOLN        PTSUNNY   81  50  33 NE13      30.12F
FALLS CITY     MOSUNNY   81  53  37 NE6       30.09F
LAMONI         MOSUNNY   80  53  39 VRB6      30.09F
DES MOINES     MOSUNNY   82  53  36 N7        30.07F

$$



USA.gov is the U.S. government's official web portal to all federal, state and local government web resources and services.